Location: Conestogo Lake
(43.6739°N, 80.7211°W)
Time: 04:28:35
(UTC-04:00)

ISS - Visible Passes

Search period start: 19 February 2019 00:00
Search period end: 01 March 2019 00:00
Orbit: 403 x 411 km, 51.6° (Epoch: 19 February)

Date Brightness Start Highest point End Pass type
(mag) Time Alt. Az. Time Alt. Az. Time Alt. Az.
22 Feb -0.8 07:00:15 10° SSE 07:01:48 13° SE 07:03:21 10° ESE visible
24 Feb -2.0 06:52:08 10° SSW 06:55:00 29° SE 06:57:54 10° ENE visible
25 Feb -1.3 06:02:51 15° SSE 06:03:39 17° SE 06:05:50 10° E visible
25 Feb -3.8 07:36:36 10° WSW 07:39:51 67° NNW 07:43:07 10° NE visible
26 Feb -3.7 06:46:33 24° SW 06:48:19 70° SE 06:51:35 10° ENE visible
27 Feb -2.4 05:57:21 35° ESE 05:57:21 35° ESE 05:59:54 10° ENE visible
27 Feb -3.0 07:30:19 10° W 07:33:23 36° NNW 07:36:27 10° NE visible
28 Feb -3.6 06:40:45 37° W 06:41:43 54° NNW 06:44:57 10° NE visible
